(510617) = 2005 YE252 = 2012 TH125

Discovered at Kitt Peak on 2005-12-29 by Spacewatch.

Orbit

Orbit type: Main Belt

Note: WebGL enabled browser required.

epoch2023-02-25.0
epoch JD2460000.5
perihelion date2020-01-08.48071
perihelion JD2458856.98071
argument of perihelion (°)28.82108
ascending node (°)264.74830
inclination (°)3.62247
eccentricity0.1401776
perihelion distance (AU)2.1611563
Tisserand w.r.t. Jupiter3.4
ΔV w.r.t. Earth (km/sec)9.3
semimajor axis (AU)2.5134915
mean anomaly (°)282.83374
mean daily motion (°/day)0.24733620
aphelion distance (AU)2.866
period (years)3.98
P-vector [x]0.39890008
P-vector [y]-0.85297738
P-vector [z]-0.33661300
Q-vector [x]0.91483343
Q-vector [y]0.34499147
Q-vector [z]0.20990637
absolute magnitude17.64
phase slope0.15
uncertainty0
referenceMPO 745323
observations used161
oppositions9
arc length (days)6370
first opposition used2005
last opposition used2023
residual rms (arc-secs)0.85
perturbers coarse indicatorM-v
perturbers precise indicator003Ek
first observation date used2005-12-29.0
last observation date used2023-06-08.0
computer nameMPCLINUX
JD of orbit computation2458142.220520
perihelion JD uncertainty (days)2.8473E-03
argument of perihelion uncertainty (°)6.0340E-04
ascending node uncertainty (°)1.5515E-04
inclination uncertainty (°)7.9642E-06
eccentricity uncertainty 1.9872E-06
perihelion distance uncertainty (AU)5.0053E-06
Minimum Orbit Intersection Distances (in AU)
for orbit epoch: 2460000.5, reference: E2023-L38
Mercury1.71254
Venus1.43551
Earth1.145
Mars0.72694
Jupiter2.29582
Saturn6.21614
Uranus15.6935
Neptune27.2232

Observations

149 total observations over interval: 2005 12 29.27314 – 2023 06 08.325181
These data are available for download (format description).

